Weather in Novoarkhangelskoye

Russia / Tambov Oblast     53°17′03″N   40°14′44″E
temp.,
°C
wind,
m/s
gust,
m/s
humid.,
%
clouds,
%
prec.,
mm/h
press.,
hPa
HPBL,
m
25 february, thu
thu2500:00−15s5995100 0.4 1033359
03:00−14ssw51094100 0.6 1031369
06:00−12ssw61094100 0.5 1027366
09:00−9ssw61195100 1.8 1024391
12:00−2sw71295100 1.9 1020638
15:00+1wsw714100100 3.3 1016431
18:00+2wnw513100100 0.3 1015303
21:00+1wnw4999100 0.3 1016259
26 february, fri
fri2600:00+1w4999100 0.0 1016215
03:00+1w41099100 0.0 1016239
06:00+1w51299100 0.3 1014298
09:00+2w51299100 0.4 1014354
12:00+2w612100100 0.0 1012302
15:00+2w715100100 0.1 1010455
18:00+2wsw715100100 0.1 1007452
21:00+2w7159899 0.3 1007529
27 february, sat
sat2700:00+2w7139199 0.0 1006458
03:00+1w71389100 0.0 1006460
06:000w71397100 0.1 1005591
09:00+1w61298100 0.1 1005597
12:00+1w51199100 0.1 1004594
15:00+1wnw612100100 0.1 1004603
18:00+1wnw61294100 0.1 1004681
21:00−1nnw61192100 0.7 1007661
28 february, sun
sun2800:00−6n41092100 0.0 1009421
03:00−8n499198 0.1 1011350
06:00−9n3895100 0.0 1013292
09:00−7n5791100 0.1 1014567
12:00−7nnw5791100 0.0 1016514
15:00−6nnw5891100 0.1 1017577
18:00−5nnw3993100 0.1 1018646
21:00−7n379695 0.1 1021197
1 march, mon
mon100:00−8nnw389693 0.1 1022219
03:00−9nnw389787 0.1 1024207
06:00−10nnw379532 0.0 1025155
09:00−9nnw259736 0.0 1027216
12:00−6nnw359499 0.0 1028346
15:00−5nw358998 0.1 1028549
18:00−7w359496 0.0 1028105
21:00−7wsw489398 0.0 1027152